Tracking 29892 objects as of 21-Nov-2024
HD Live streaming from Space Station
objects crossing your sky now

CZ-6A DEB

Track CZ-6A DEB now!
10-day predictions


NORAD ID: 54922
Int'l Code: 2022-151RK
Perigee: 643.5 km
Apogee: 749.6 km
Inclination: 98.7 °
Period: 98.6 minutes
Semi major axis: 7067 km
RCS: Unknown
Launch date: November 11, 2022
Source: People's Republic of China (PRC)
Launch site: Taiyaun Space Center, China (TSC)

Note: This is SATELLITE DEBRIS
Your satellite tracking list
Your tracking list is empty




NASA's NSSDC Master Catalog

Two Line Element Set (TLE):
1 54922U 22151RK  24324.83407500  .00032953  00000-0  64130-2 0  9993
2 54922  98.6558 354.3522 0075036 247.3738 111.9512 14.61172820103134
Source of the keplerian elements: AFSPC